Regional Weather Roundup
Issued by NWS

Home | Current Version | Previous Version | Graphics & Text | Print | Product List | Glossary Off
Versions: 1 2 3 4 5 6 7 8 9 10 11 12 13 14 15 16 17 18 19 20 21 22 23 24 25 26 27 28 29 30 31 32 33 34 35 36 37 38 39 40 41 42 43 44 45 46 47 48 49 50

945
ASUS43 KFSD 070910
RWRSD

WEATHER ROUNDUP FOR SOUTH DAKOTA
NATIONAL WEATHER SERVICE SIOUX FALLS SD
300 AM CST WED DEC 07 2016

NOTE: "FAIR" INDICATES FEW OR NO CLOUDS BELOW 12,000 FEET WITH NO
SIGNIFICANT WEATHER AND/OR OBSTRUCTIONS TO VISIBILITY.


SDZ001>005-009-010-012>017-071000-
NORTHWEST AND NORTH CENTRAL SOUTH DAKOTA

CITY           SKY/WX    TMP DP  RH WIND       PRES   REMARKS
BUFFALO          N/A     -1  -8  72 NW25      30.11R WCI -25
FAITH            N/A      0  -5  79 W22       30.17R WCI -23
MOBRIDGE       CLOUDY     8  -1  66 W26G38    30.09R WCI -14
$$

SDZ012>016-024>037-041>051-057-063-072>074-071000-
SOUTHWEST AND SOUTH CENTRAL SOUTH DAKOTA

CITY           SKY/WX    TMP DP  RH WIND       PRES   REMARKS
RAPID CTY ARPT CLOUDY     5  -3  69 N14       30.16R WCI -12
PIERRE         PTCLDY     8   2  76 NW21G31   30.17R WCI -12
CUSTER         CLOUDY    -5 -10  79 W3        29.94R
ELLSWORTH AFB  CLOUDY     5  -4  67 NW20      30.15R WCI -15
PHILIP         CLOUDY     5  -3  69 NW17      30.22R WCI -14
PINE RIDGE     CLOUDY     2  -2  83 E3        30.17R
SPEARFISH      CLOUDY     1  -4  78 NW15      30.14R WCI -18
WINNER         FAIR       8   0  69 NW12      30.19R WCI  -7
$$

SDZ004>011-016>023-039-040-071000-
NORTHEAST SOUTH DAKOTA

CITY           SKY/WX    TMP DP  RH WIND       PRES   REMARKS
ABERDEEN       CLOUDY    10   1  67 W22G30    30.07R WCI -10
WATERTOWN      CLOUDY     7   2  80 W23G30    30.00R WCI -14
BROOKINGS      CLEAR      7   1  76 W22G30    30.03R WCI -14
SISSETON         N/A     13   5  70 NW28G37   29.94R WCI  -8
$$

SDZ017-020-022-023-036>040-048>070-071000-
SOUTHEAST SOUTH DAKOTA

CITY           SKY/WX    TMP DP  RH WIND       PRES   REMARKS
SIOUX FALLS    CLEAR     10   3  73 W22G28    30.10R WCI -10
HURON          CLEAR      7   1  76 NW20      30.13R WCI -13
CHAMBERLAIN    CLEAR     10   3  74 W23       30.18R WCI -10
MITCHELL       CLEAR      9   2  73 W17G25    30.18R WCI  -9
YANKTON        CLOUDY    12   3  67 W15       30.18R WCI  -4
$$

ABBREVIATIONS USED IN REMARKS
   TC - TEMPERATURE IN CELSIUS
  WCI - WIND CHILL INDEX
   HX - HEAT INDEX
  VSB - VISIBILITY





USA.gov is the U.S. government's official web portal to all federal, state and local government web resources and services.